Location: Temple Hill
(37.3073°N, 88.6303°W)
Time: 16:02:53
(UTC+00:00)

Meteor 1-4 Rocket - Pass Details

Date: 23 November 2020
Orbit: 449 x 500 km, 81.2° (Epoch: 20 January)

Event Time Altitude Azimuth Distance (km) Brightness Sun altitude
Rises 12:11:21 0° 341° (NNW) 2,469 5.8 -6.5°
Reaches altitude 10° 12:13:33 10° 332° (NNW) 1,587 4.7 -6.1°
Maximum altitude 12:16:41 33° 266° (W) 771 3.1 -5.6°
Drops below altitude 10° 12:19:49 10° 201° (SSW) 1,571 5.2 -5.0°
Sets 12:21:59 0° 191° (S) 2,438 6.3 -4.6°
